Zurück zum Katalog

STARLINK-2214

AktivKommunikationVLEO
NORAD 48566·PAYLOAD·🇺🇸 United States

Gestartet May 15, 2021 von Cape Canaveral Space Force Station

Loading…

Nächste Überflüge (nächste 24 Stunden)

TLE

AktuellSource: CelesTrak SupGP

Epoche: Sep 14, 2026, 12:46 UTC

1 48566C 21041P   26257.53243056 -.00015943  00000+0 -51282-3 0  2578
2 48566  53.1603 350.0783 0001222  77.1434 336.0435 15.31702300    15

Verfolge STARLINK-2214 in Echtzeit mit AllMySat

Download on the App Store